Regional Weather Roundup
Issued by NWS

Current Version | Previous Version | Text Only | Print | Product List | Glossary On
Versions: 1 2 3 4 5 6 7 8 9 10 11 12 13 14 15 16 17 18 19 20 21 22 23 24 25 26 27 28 29 30 31 32 33 34 35 36 37 38 39 40 41 42 43 44 45 46 47 48 49 50
000
ASCA42 TJSJ 310611
RWRPR
PUERTO RICO/U.S. VIRGIN ISLANDS HOURLY WEATHER ROUNDUP
NATIONAL WEATHER SERVICE SAN JUAN PR
200 AM AST SUN AUG 31 2014

PRZ001-004-310700-
PUERTO RICO

CITY           SKY/WX    TMP DP  RH WIND       PRES   REMARKS
SAN JUAN LMM   PTCLDY    81  75  83 CALM      30.02F
PONCE          PTCLDY    77  73  88 CALM      29.98F
CEIBA          PTCLDY    81  72  74 E9        30.04F
$$

PRZ006-007-310700-
U.S. VIRGIN ISLANDS

CITY           SKY/WX    TMP DP  RH WIND       PRES   REMARKS
CHRISTIANSTED  PTCLDY    77  73  88 NE6       30.01F
$$

HOURLY WEATHER ROUNDUP FOR THE NEWS MEDIA

CITY           SKY/WX    TMP DP  RH WIND       PRES   REMARKS
MIAMI          MOCLDY    85  74  69 E5        30.10F HX  92
ORLANDO        FAIR      80  75  84 CALM      30.15S
NEW YORK       CLOUDY    73  67  81 SW7       30.15F
NEWARK         CLOUDY    72  67  84 S7        30.14F
CHICAGO        MOCLDY    71  64  78 S6        29.91F
HARTFORD       CLOUDY    65  63  93 SW5       30.15F
BOSTON         MOCLDY    67  62  84 S10       30.12F
DALLAS         FAIR      82  69  64 S7        29.93F
PHILADELPHIA   CLOUDY    73  65  75 S6        30.15F


USA.gov is the U.S. government's official web portal to all federal, state and local government web resources and services.